Location: Bacharowice
(49.9333°N, 19.5833°E)
Time: 05:39:23
(UTC+00:00)

Cosmos 1908 Rocket - Pass Details

Date: 27 September 2021
Orbit: 605 x 633 km, 82.5° (Epoch: 17 October)

Event Time Altitude Azimuth Distance (km) Brightness Sun altitude
Rises 17:14:00 0° 183° (S) 2,915 7.0 -8.1°
Reaches altitude 10° 17:16:14 10° 182° (S) 2,011 6.1 -8.5°
Maximum altitude 17:20:41 75° 98° (E) 658 3.5 -9.2°
Drops below altitude 10° 17:25:10 10° 13° (NNE) 2,017 6.2 -9.9°
Sets 17:27:24 0° 12° (NNE) 2,926 7.0 -10.3°
